Weather in Sonderborg

Denmark     54°54′50″N   9°47′47″E
temp.,
°C
wind,
m/s
gust,
m/s
humid.,
%
clouds,
%
prec.,
mm/h
press.,
hPa
HPBL,
m
15 june, tue
tue1523:00+14wnw5886100 0.0 1018406
02:00+12nw4789100 0.0 1018298
05:00+11nw4686100 0.0 1019221
08:00+13nw4575100 0.0 1020457
11:00+16nw34618 0.0 10211054
14:00+18wnw445811 0.0 10201444
17:00+17wnw546199 0.0 10201315
20:00+15wnw4574100 0.0 1020342
16 june, wed
wed1623:00+11wnw348478 0.0 102064
02:00+9nnw11875 0.0 102028
05:00+9sse22875 0.0 101932
08:00+14sse34805 0.0 1019404
11:00+17sse34655 0.0 1018731
14:00+19se45645 0.0 1018851
17:00+19ese55705 0.0 1017475
20:00+17ese49818 0.0 1016262
17 june, thu
thu1723:00+15ese511855 0.0 1016217
02:00+15se6128628 0.0 1015231
05:00+16se597898 0.0 1014208
08:00+18se59805 0.0 1014224
11:00+20se710776 0.0 1014307
14:00+23se710784 0.0 1013412
17:00+24se710771 0.0 1012271
20:00+22se59845 0.1 1011159
18 june, fri
fri1823:00+18w37968 0.4 1013123
02:00+17wsw35953 0.4 101389
05:00+14wnw249960 0.0 101495
08:00+16nw339595 0.0 1015240
11:00+19n338550 0.0 1015394
14:00+22nnw22763 0.0 1016501
17:00+24ene357541 0.0 1014548
20:00+21ne468814 0.0 1012257
19 june, sat
sat1923:00+18ene3396100 1.7 101360
02:00+18se1195100 2.4 101214
05:00+17sse4696100 0.7 1011115
08:00+20sw6129017 1.8 1013574
11:00+20sw797699 0.0 10141037
14:00+19sw6108496 0.2 1015783
17:00+19sw6976100 0.1 1015918
20:00+15wnw6883100 0.1 1016590